Tracking 30918 objects as of 2-Jul-2025
HD Live streaming from Space Station
objects crossing your sky now

STARLINK-11134

Track STARLINK-11134 now!
10-day predictions
STARLINK-11134 is classified as:


NORAD ID: 59956
Int'l Code: 2024-107M
Perigee: 366.3 km
Apogee: 367.4 km
Inclination: 53.2 °
Period: 91.7 minutes
Semi major axis: 6737 km
RCS: Unknown
Launch date: June 5, 2024
Source: United States (US)
Launch site: AIR FORCE EASTERN TEST RANGE (AFETR)
Your satellite tracking list
FENGYUN 1C DEB
Track 1 satellite(s)




NASA's NSSDC Master Catalog

Two Line Element Set (TLE):
1 59956U 24107M   25182.85935960 -.00000880  00000-0 -24130-5 0  9994
2 59956  53.1593  47.5129 0000777  98.9366 261.1739 15.69708904 62682
Source of the keplerian elements: AFSPC